Location: Caltech
(34.1382°N, 118.1253°W)
Time: 20:49:00
(UTC-07:00)

ASTRO E2 - Visible Passes

Search period start: 27 May 2015 00:00
Search period end: 06 June 2015 00:00
Orbit: 524 x 531 km, 31.4° (Epoch: 27 May)

Date Brightness Start Highest point End Pass type
(mag) Time Alt. Az. Time Alt. Az. Time Alt. Az.
27 May 3.1 20:47:48 10° WSW 20:51:39 43° SSE 20:54:53 14° E visible
27 May 4.5 22:28:15 10° W 22:30:02 24° WSW 22:30:02 24° WSW visible
28 May 3.0 20:33:49 10° WSW 20:37:42 48° S 20:41:37 10° E visible
28 May 3.7 22:14:20 10° W 22:17:01 37° WSW 22:17:01 37° WSW visible
29 May 3.0 20:19:51 10° WSW 20:23:47 51° S 20:27:43 10° E visible
29 May 3.1 22:00:25 10° W 22:03:52 50° SW 22:03:52 50° SW visible
30 May 2.9 21:46:31 10° W 21:50:26 51° S 21:50:39 50° S visible
31 May 3.1 21:32:36 10° W 21:36:29 47° S 21:37:22 40° SSE visible
01 Jun 3.2 21:18:42 10° W 21:22:32 43° SSW 21:24:03 29° SE visible
02 Jun 3.4 21:04:48 10° W 21:08:35 38° SSW 21:10:42 21° SE visible
03 Jun 3.7 20:50:55 10° W 20:54:36 34° SSW 20:57:23 15° SE visible
04 Jun 3.9 20:37:04 10° W 20:40:37 29° SSW 20:44:03 10° SE visible
